Find OneWeb SL0620

NORAD ID: 55161 Int'l Des: 2023-004 Owner: ONEWEBN Country: UK Constellation: oneweb operational
LEOCIRCULARPOLARONEWEB_TYPE

Live Position

Loading 3D Globe...

About OneWeb SL0620

Description loading...

Upcoming Passes

Passes for default location (London). Set your location on the main map for personalized predictions.

Altitude History

Loading altitude history...

Two-Line Element Set

1 55161U 23004X 26110.53416876 .00000333 00000-0 90291-3 0 9990
2 55161 87.8917 32.5394 0001751 70.8835 289.2482 13.11416931158279
Epoch: Apr 20, 2026 • Age: 9 hours

Current Status

Altitude 1245.1 km
Velocity 7.23 km/s
Sub-Earth Point -69.30°S, 47.88°E
Launch Date Jan 10, 2023
Age 3.2 years
Type internet

Technical Details

Classification Payload
Mass 148.00 kg
Dry Mass 140.00 kg
Total Mass 148.00 kg
Length 1.30 m
Diameter 1.00 m
Span 5.00 m
Shape Trapezoid+2 pan
Manufacturer ONEWUS
Bus Type ARROW
Phase Status In Orbit
Owner/State ONEWEBN/UK

Most Searched